Regional Weather Roundup
Issued by NWS

Home | Current Version | Previous Version | Graphics & Text | Print | Product List | Glossary On
Versions: 1 2 3 4 5 6 7 8 9 10 11 12 13 14 15 16 17 18 19 20 21 22 23 24 25 26 27 28 29 30 31 32 33 34 35 36 37 38 39 40 41 42 43 44 45 46 47 48 49 50
340
ASUS43 KMKX 131021
RWRWI

WISCONSIN REGIONAL WEATHER ROUNDUP
NATIONAL WEATHER SERVICE MILWAUKEE/SULLIVAN WI
400 AM CST SAT FEB 13 2016

NOTE: "FAIR" INDICATES FEW OR NO CLOUDS BELOW 12,000 FEET WITH NO
SIGNIFICANT WEATHER AND/OR OBSTRUCTIONS TO VISIBILITY.

WIZ001-002-006>008-014>016-023>028-131100-
NORTHWEST WISCONSIN

CITY           SKY/WX    TMP DP  RH WIND       PRES   REMARKS
SUPERIOR ARPT  CLOUDY   -10 -18  66 W6        30.64R WCI -23
ASHLAND        CLOUDY    -3  -9  75 NW7       30.57S HAZE    WCI -16
HAYWARD        CLOUDY   -12 -21  64 CALM      30.54S
SIREN          PTCLDY   -14 -20  72 NW5       30.61F WCI -26
CUMBERLAND     CLOUDY    -9 -20  59 NW5       30.56S WCI -21
RICE LAKE      CLOUDY    -9 -18  63 CALM      30.59F
CHETEK         CLOUDY    -9 -18  64 CALM      30.58S
LADYSMITH      CLOUDY    -9 -18  63 NW7       30.54S WCI -23
EAU CLAIRE     PTCLDY    -6 -18  56 CALM      30.60R
MENOMONIE      PTCLDY    -4 -17  55 W7        30.61S WCI -18
NEW RICHMOND   PTCLDY    -9 -17  65 NW5       30.61S WCI -20
OSCEOLA        PTCLDY    -5 -15  63 NW5       30.65F WCI -16
$$

WIZ003>005-009-010-017-018-131100-
NORTH CENTRAL WISCONSIN

CITY           SKY/WX    TMP DP  RH WIND       PRES   REMARKS
MANITOWISH WTR FLURRIES  -9 -14  79 W6        30.40S WCI -23
ARBOR VITAE    CLEAR     -6 -11  78 W5        30.40S WCI -17
WOODRUFF       CLEAR     -6 -11  78 W5        30.40S WCI -17
RHINELANDER    CLOUDY   -10 -15  78 W9        30.40S WCI -27
EAGLE RIVER    FLURRIES  -8 -14  74 W7        30.37S WCI -22
LAND O LAKES   LGT SNOW  -2  -6  81 NW5       30.37R WCI -12
PHILLIPS       CLOUDY   -13 -17  82 W3        30.47S
TOMAHAWK       CLOUDY    -9 -15  77 W7        30.44S WCI -24
MEDFORD        CLOUDY    -9 -17  68 N9        30.46S WCI -26
MERRILL        CLOUDY    -7 -14  71 NW6       30.47S WCI -20
$$

WIZ029-030-035-036-043>047-131100-
CENTRAL WISCONSIN

CITY           SKY/WX    TMP DP  RH WIND       PRES   REMARKS
WAUSAU         CLOUDY    -5 -14  65 NW8       30.47S WCI -20
MOSINEE        CLOUDY    -6 -15  65 NW10      30.49S WCI -23
MARSHFIELD     CLOUDY    -7 -19  56 NW13      30.49R WCI -27
STEVENS POINT  CLOUDY    -7 -17  62 CALM      30.50S
WAUPACA        PTCLDY    -1 -14  53 NW10      30.52S WCI -18
WAUTOMA        MOCLDY    -6 -19  53 NW10      30.54S WCI -24
WISC RAPIDS    CLOUDY    -5 -17  56 NW9       30.54R WCI -22
CAMP DOUGLAS   PTCLDY    -8 -17  63 W8        30.56S WCI -24
$$

WIZ011>013-019>022-031-037>040-048>050-131100-
NORTHEAST WISCONSIN

CITY           SKY/WX    TMP DP  RH WIND       PRES   REMARKS
ANTIGO         CLEAR     -9 -14  77 NW13G20   30.41S WCI -29
SHAWANO        CLEAR     -2 -12  62 W7        30.50R WCI -15
OCONTO         PTCLDY    -3 -12  67 W9        30.49R WCI -19
STURGEON BAY   CLEAR     -2 N/A N/A W14G20    30.47R WCI -21
GREEN BAY      PTCLDY    -3 -13  62 NW12      30.50R WCI -21
MANITOWOC      CLEAR     -1 -11  62 NW14      30.48S WCI -20
APPLETON       CLEAR     -4 -15  59 W13       30.47S WCI -23
CLINTONVILLE   CLEAR     -2 -15  55 NW13      30.50S WCI -21
OSHKOSH        PTCLDY    -3 -15  56 W10       30.51R WCI -20
$$

WIZ032>034-041-042-053>061-131100-
SOUTHWEST WISCONSIN

CITY           SKY/WX    TMP DP  RH WIND       PRES   REMARKS
LA CROSSE      PTCLDY    -2 -15  54 CALM      30.63R
SPARTA         PTCLDY    -4 -15  59 NW3       30.60R
VIROQUA        PTCLDY    -7 -17  61 NW7       30.53S WCI -22
BOSCOBEL       CLOUDY    -6 -13  71 CALM      30.62R
PRAIRIE DU CHI CLOUDY     0 -13  55 NW5       30.62S WCI -10
PLATTEVILLE    CLOUDY    -1 -10  65 NW6       30.56S WCI -13
$$

WIZ056-057-062-063-064-067-068-131100-
SOUTH CENTRAL WISCONSIN

CITY           SKY/WX    TMP DP  RH WIND       PRES   REMARKS
REEDSBURG      CLOUDY    -4 -15  58 NW3       30.56S
BARABOO/DELLS  CLOUDY    -3 -17  49 NW6       30.54S WCI -15
LONE ROCK      CLOUDY    -3 -15  56 W5        30.60R WCI -13
MINERAL POINT  PTCLDY     1 -13  51 NW8       30.53S WCI -12
MADISON        CLEAR     -1 -15  51 NW7       30.54S WCI -14
MIDDLETON      CLEAR      1 -13  51 NW6       30.55S WCI -11
WATERTOWN      CLEAR      0 -12  56 NW9       30.52S WCI -15
MONROE         CLEAR      1 -11  55 NW8       30.52S WCI -12
JANESVILLE     CLEAR      5  -9  51 NW9       30.54S WCI  -9
$$

WIZ051-052-058>065-066-070>072-131100-
SOUTHEAST WISCONSIN

CITY           SKY/WX    TMP DP  RH WIND       PRES   REMARKS
MILWAUKEE      CLEAR      2 -13  49 NW12      30.51R WCI -15
WAUKESHA       CLEAR      0 -13  55 NW9       30.51S WCI -16
MILWAUKEE/TIMM PTCLDY     1 -15  46 NW16      30.51F WCI -18
RACINE         CLEAR      2 -13  49 NW13G18   30.52S WCI -15
BURLINGTON     CLEAR      0 -13  54 NW9       30.52S WCI -16
KENOSHA        CLEAR      2 -11  54 NW10      30.51S WCI -14
FOND DU LAC    PTCLDY    -2 -14  56 NW13      30.51R WCI -20
SHEBOYGAN      CLEAR     -1 -13  56 NW12      30.49R WCI -18
WEST BEND      CLEAR      0 -15  50 NW6       30.49S WCI -12
JUNEAU         CLEAR     -2 -14  57 NW10      30.52S WCI -19
$$

LSZ147-162-131100-
LAKE SUPERIOR

STATION/POSITION TIME  TEMP    WIND        PRES    WAVE
                       AIR SEA DIR/SP/G            HT/PER
                 (UTC) (F)     (DEG/KT/KT) (MB)    (FT/S)
DEVILS ISLAND    1000    0     340/ 17/ 21 1037.0F
SAXON HARBOR     0940    2                 1034.2R
$$

LMZ867-665-643>646-131100-
LAKE MICHIGAN

STATION/POSITION TIME  TEMP    WIND        PRES    WAVE
                       AIR SEA DIR/SP/G            HT/PER
                 (UTC) (F)     (DEG/KT/KT) (MB)    (FT/S)
CHAMBERS ISLAND  0900    0     280/  9/ 15 1029.8F
SISTER BAY       0834    1     320/ 20/ 23   N/A
ALGOMA LAKESHORE 0911          310/  7/ 11   N/A
KEWAUNEE LAKESHO 0900   -1     290/  9/ 13 1030.5R
SHEBOYGAN LAKESH 1000    1     290/ 13/ 15 1034.4R
PORT WASHINGTON  0900    2     300/  9/ 15 1033.9R
MILWAUKEE LAKESH 1010    3     310/ 11/ 14   N/A
KENOSHA   LAKESH 1000    4     310/ 11/ 17 1032.8S
$$

TC  - TEMPERATURE IN CELSIUS
VSB - VISIBILITY IN STATUTE MILES
WCI - WIND CHILL INDEX
HX  - HEAT INDEX





USA.gov is the U.S. government's official web portal to all federal, state and local government web resources and services.